Starlink 11584

operational
NORAD ID: 63106 Int'l Des: 2025-039 Owner: SPXS Country: US Constellation: starlink
LEOCIRCULAR

关于 Starlink 11584

正在加载描述...

实时位置

正在加载3D地球...

即将过境

高度历史

Altitude vs Time

uPlot chart will show altitude changes over time

两行轨道根数

1 63106U 25039C 25304.12153706 .00339714 00000-0 25469-2 0 9999
2 63106 43.0001 298.2093 0001673 265.8354 94.2323 15.70814683 39232
Epoch: Oct 31, 2025 • Age: 10 hours

当前状态

高度 366.7 km
速度 7.69 km/s
星下点 -39.93°S, 7.24°W
发射日期 Feb 27, 2025
运行时间 0.6 years
类型 internet

技术详情

分类 Payload
质量 960.00 kg
干质量 910.00 kg
总质量 960.00 kg
长度 0.30 m
直径 4.10 m
跨度 29.00 m
形状 Box + pan
制造商 SPXS
平台类型 Starlink V2MD
阶段状态 In Orbit
所有者/国家 SPXS/US

大型星座

Loading constellations...